Weather reports worldwide

Advertisment
Tarbes/Ossun, France (7621): temperature & dewpoint: 19.09.2018 12:00:00 - 25.09.2018 12:00:00 (CEST)Tarbes/Ossun, France (7621): temperature 5cm: 19.09.2018 12:00:00 - 25.09.2018 12:00:00 (CEST)Tarbes/Ossun, France (7621): temperature -20cm & temperature -100cm: 19.09.2018 12:00:00 - 25.09.2018 12:00:00 (CEST)Tarbes/Ossun, France (7621): wind speed & gusts: 19.09.2018 12:00:00 - 25.09.2018 12:00:00 (CEST)Tarbes/Ossun, France (7621): wind direction: 19.09.2018 12:00:00 - 25.09.2018 12:00:00 (CEST)Tarbes/Ossun, France (7621): reduced air pressure: 19.09.2018 12:00:00 - 25.09.2018 12:00:00 (CEST)Tarbes/Ossun, France (7621): visibility: 19.09.2018 12:00:00 - 25.09.2018 12:00:00 (CEST)Tarbes/Ossun, France (7621): sunshine duration: 19.09.2018 12:00:00 - 25.09.2018 12:00:00 (CEST)Tarbes/Ossun, France (7621): precipitation: 19.09.2018 12:00:00 - 25.09.2018 12:00:00 (CEST)
Date & Time tt [°C] td [°C] tt 5cm [°C] tt -20cm [°C] tt -100cm [°C] ff [km/h] ff [kn] fx [km/h] fx [kn] dd ppp [hPa] vv [km] sd [min] rr [mm]
25.09.2018 12:00:00 - - - - - - - - - - - - - -
25.09.2018 11:00:00 15,2 11,0 13,8 18,0 18,6 4 2 16 9 WSW 1028,1 28 60 0,0
25.09.2018 10:00:00 12,2 10,6 10,5 18,2 18,6 4 2 12 6 SSW 1028,3 41 60 0,0
25.09.2018 09:00:00 9,5 9,4 8,9 18,3 18,6 8 5 11 6 SSE 1028,7 52 44 0,0
25.09.2018 08:00:00 8,4 8,1 6,7 18,4 18,6 9 5 13 7 SE 1028,6 0,3 0 0,0
25.09.2018 07:00:00 6,1 5,7 6,7 18,5 18,6 7 4 9 5 S 1029,1 32 0 0,0
25.09.2018 06:00:00 6,9 6,5 6,8 18,7 18,6 4 2 9 5 S 1029,1 2,2 0 0,0
25.09.2018 05:00:00 8,0 7,6 - - - 5 3 9 5 SSW 1029,2 0,6 - -
25.09.2018 04:00:00 8,2 7,6 7,9 18,9 18,6 5 3 6 4 S 1029,4 1,0 0 0,0
25.09.2018 03:00:00 10,2 9,7 9,1 19,0 18,6 3 2 7 4 SSW 1029,5 22 0 0,0
25.09.2018 02:00:00 9,8 8,9 9,7 19,1 18,6 6 3 8 4 SSE 1029,8 20 0 0,0
25.09.2018 01:00:00 10,1 9,6 9,2 19,3 18,6 5 3 8 4 S 1030,0 24 0 0,0
25.09.2018 00:00:00 9,2 8,6 9,4 19,3 18,6 7 4 11 6 S 1030,2 25 0 0,0
24.09.2018 23:00:00 10,1 9,0 9,9 19,5 18,6 6 4 12 7 SSW 1030,5 27 0 0,0
24.09.2018 22:00:00 11,4 10,1 10,9 19,6 18,6 10 5 15 8 S 1030,3 30 0 0,0
24.09.2018 21:00:00 11,5 10,6 11,0 19,6 18,6 8 4 14 7 S 1030,0 27 0 0,0
24.09.2018 20:00:00 12,5 10,9 12,6 19,6 18,5 9 5 17 9 S 1029,9 26 33 0,0
24.09.2018 19:00:00 15,1 11,7 15,4 19,7 18,6 13 7 19 11 SW 1029,1 27 46 0,0
24.09.2018 18:00:00 14,7 10,7 16,5 19,7 18,6 10 6 20 11 W 1029,1 20 0 0,0
24.09.2018 17:00:00 14,8 11,2 16,9 19,8 18,6 14 7 25 13 W 1029,4 21 0 0,0
24.09.2018 16:00:00 15,6 12,3 16,0 19,8 18,6 15 8 26 14 W 1029,5 29 10 0,0
24.09.2018 15:00:00 13,9 11,2 16,0 19,9 18,6 14 8 24 13 WNW 1030,2 35 0 0,0
24.09.2018 14:00:00 14,0 11,7 16,3 19,9 18,6 13 7 20 11 NW 1030,2 34 0 0,0
24.09.2018 13:00:00 13,6 11,6 16,5 20,0 18,6 12 6 20 11 NNW 1030,5 35 0 0,0
24.09.2018 12:00:00 13,3 11,5 16,3 20,1 18,6 9 5 19 11 N 1030,5 37 0 0,0
24.09.2018 11:00:00 13,3 12,7 15,4 20,2 18,6 14 7 25 14 NW 1030,2 4,8 0 0,2
24.09.2018 10:00:00 14,7 14,2 16,1 20,2 18,6 15 8 25 14 NNW 1028,9 2,8 0 0,4
24.09.2018 09:00:00 15,7 14,9 16,9 20,3 18,6 15 8 25 14 NW 1027,8 3,5 0 0,2
24.09.2018 08:00:00 16,4 15,6 16,9 20,4 18,6 11 6 30 16 W 1027,0 19 0 0,4
24.09.2018 07:00:00 16,5 15,7 17,2 20,4 18,6 8 5 16 9 W 1026,8 17 0 0,0
24.09.2018 06:00:00 16,6 15,8 17,3 20,5 18,6 11 6 23 13 WNW 1026,4 17 0 0,2
24.09.2018 05:00:00 17,3 16,5 17,8 20,5 18,5 14 8 22 12 NNW 1026,0 9 0 0,6
24.09.2018 04:00:00 18,1 16,6 17,7 20,6 18,5 9 5 21 12 WSW 1025,6 14 0 0,0
24.09.2018 03:00:00 18,3 16,5 17,8 20,7 18,5 14 8 24 13 WSW 1025,9 12 0 0,0
24.09.2018 02:00:00 18,5 16,5 16,4 20,8 18,6 11 6 22 12 WSW 1025,9 15 0 0,0
24.09.2018 01:00:00 17,7 15,9 16,1 20,8 18,5 8 4 16 9 WSW 1026,0 14 0 0,0
24.09.2018 00:00:00 18,2 16,2 17,4 20,9 18,6 11 6 19 10 SW 1026,1 14 0 0,0
23.09.2018 23:00:00 19,1 16,7 18,6 20,9 18,6 13 7 30 16 WSW 1026,3 14 0 0,0
23.09.2018 22:00:00 19,5 16,7 19,3 20,9 18,5 18 10 42 23 W 1026,3 19 0 0,0
23.09.2018 21:00:00 20,6 17,0 - - - 15 8 35 19 W 1025,3 29 - 0,0
23.09.2018 20:00:00 23,0 16,5 21,0 20,8 18,5 21 11 32 18 WNW 1024,0 43 22 0,0
23.09.2018 19:00:00 25,7 16,8 24,4 20,7 18,5 16 8 30 16 WNW 1022,9 27 60 0,0
23.09.2018 18:00:00 27,4 15,1 - - - 21 11 31 17 W 1022,2 40 - 0,0
23.09.2018 17:00:00 28,1 15,4 32,2 20,3 18,5 21 11 31 17 NW 1021,7 42 60 0,0
23.09.2018 16:00:00 28,2 15,8 35,2 20,1 18,5 13 7 27 14 W 1021,2 31 60 0,0
23.09.2018 15:00:00 27,7 16,0 36,0 20,0 18,5 10 5 21 12 W 1021,5 43 60 0,0
23.09.2018 14:00:00 27,0 15,7 32,9 19,9 18,5 12 6 21 11 WSW 1022,0 29 60 0,0
23.09.2018 13:00:00 25,9 15,9 27,8 19,9 18,5 7 4 16 9 W 1022,6 43 60 0,0
23.09.2018 12:00:00 24,8 16,0 23,4 19,9 18,6 6 3 11 6 W 1023,0 36 60 0,0
23.09.2018 11:00:00 23,2 15,3 19,8 19,9 18,5 3 1 8 5 N 1023,6 53 60 0,0
23.09.2018 10:00:00 20,3 15,5 16,3 20,0 18,5 4 2 9 5 S 1023,9 57 60 0,0
23.09.2018 09:00:00 16,6 14,6 14,2 20,1 18,5 5 3 10 5 SSE 1024,3 44 46 0,0
23.09.2018 08:00:00 15,3 13,5 13,8 20,2 18,5 8 4 14 8 S 1024,1 32 0 0,0
23.09.2018 07:00:00 15,4 13,8 14,4 20,3 18,5 11 6 18 10 S 1023,9 31 0 0,0
23.09.2018 06:00:00 15,4 14,1 14,4 20,5 18,5 9 5 15 8 SSE 1024,2 29 0 0,0
23.09.2018 05:00:00 15,5 14,2 14,4 20,5 18,5 9 5 15 8 S 1024,5 31 0 0,0
23.09.2018 04:00:00 16,1 14,8 14,6 20,6 18,5 8 4 14 7 SSE 1025,0 32 0 0,0
23.09.2018 03:00:00 16,1 14,5 15,2 20,7 18,5 10 5 13 7 S 1025,5 28 0 0,0
23.09.2018 02:00:00 16,8 15,3 15,2 20,8 18,5 10 5 14 8 SSE 1025,5 30 0 0,0
23.09.2018 01:00:00 17,5 15,5 16,2 20,8 18,5 9 5 15 8 SSE 1025,4 31 0 0,0
23.09.2018 00:00:00 18,0 15,8 16,0 20,9 18,5 10 6 13 7 S 1025,2 31 0 0,0
22.09.2018 23:00:00 18,8 16,0 16,9 20,9 18,5 8 5 12 7 S 1024,8 33 0 0,0
22.09.2018 22:00:00 19,2 16,2 17,0 20,9 18,5 8 4 11 6 SSE 1024,6 33 0 0,0
22.09.2018 21:00:00 19,3 16,0 17,8 20,9 18,5 6 3 12 6 S 1024,0 19 0 0,0
22.09.2018 20:00:00 23,8 15,8 20,3 20,8 18,5 6 4 29 16 WSW 1022,9 42 23 0,0
22.09.2018 19:00:00 26,0 15,1 24,3 20,7 18,5 12 7 25 13 W 1022,5 53 56 0,0
22.09.2018 18:00:00 27,1 15,8 28,3 20,5 18,5 15 8 37 20 WNW 1022,0 56 60 0,0
22.09.2018 17:00:00 27,6 15,6 33,3 20,4 18,5 13 7 26 14 WNW 1021,8 55 60 0,0
22.09.2018 16:00:00 27,6 15,6 34,4 20,2 18,5 11 6 25 14 WNW 1021,8 41 60 0,0
22.09.2018 15:00:00 26,4 16,3 35,8 20,1 18,4 9 5 18 10 NW 1022,1 24 60 0,0
22.09.2018 14:00:00 25,0 15,9 33,1 20,0 18,4 6 3 17 9 NE 1022,6 53 60 0,0
22.09.2018 13:00:00 24,3 16,0 27,8 19,9 18,4 5 3 13 7 NE 1022,9 49 58 0,0
22.09.2018 12:00:00 22,3 15,6 23,8 19,9 18,4 4 2 15 8 NNE 1023,3 60 60 0,0
22.09.2018 11:00:00 21,3 15,4 20,4 19,9 18,5 4 2 14 8 S 1023,5 43 60 0,0
22.09.2018 10:00:00 19,2 14,5 18,6 20,0 18,4 4 2 10 5 SE 1023,7 37 47 0,0
22.09.2018 09:00:00 16,9 15,4 16,6 20,1 18,5 4 2 10 5 N 1023,7 39 12 0,0
22.09.2018 08:00:00 16,3 15,3 16,8 20,1 18,4 3 2 9 5 NNE 1023,7 28 0 0,0
22.09.2018 07:00:00 16,5 15,2 17,4 20,1 18,4 4 2 8 4 ENE 1023,2 29 0 0,0
22.09.2018 06:00:00 16,6 15,3 17,4 20,2 18,4 4 2 7 4 NNE 1023,5 16 0 0,0
22.09.2018 05:00:00 16,6 15,3 17,5 20,2 18,4 5 3 8 4 ESE 1023,7 29 0 0,0
22.09.2018 04:00:00 16,5 15,0 17,6 20,4 18,4 0 0 4 2 N 1024,4 38 0 0,0
22.09.2018 03:00:00 16,3 15,2 17,7 20,4 18,4 2 1 8 4 N 1024,5 32 0 0,0
22.09.2018 02:00:00 16,2 15,6 17,5 20,5 18,4 5 3 15 8 NNE 1024,6 14 0 0,0
22.09.2018 01:00:00 16,4 15,4 17,7 20,5 18,4 10 5 18 10 N 1024,9 18 0 0,0
22.09.2018 00:00:00 17,9 16,4 17,5 20,6 18,4 7 4 14 8 NNE 1024,6 15 0 0,0
21.09.2018 23:00:00 17,8 16,0 16,0 20,6 18,4 9 5 14 8 NW 1024,5 25 0 0,0
21.09.2018 22:00:00 18,2 14,9 16,4 20,6 18,4 3 2 15 8 WNW 1023,8 25 0 0,0
21.09.2018 21:00:00 19,2 15,1 18,5 20,7 18,4 10 5 23 13 W 1023,6 20 0 0,0
21.09.2018 20:00:00 20,6 14,9 19,6 20,6 18,4 15 8 24 13 WNW 1022,3 23 0 0,0
21.09.2018 19:00:00 22,1 13,7 21,7 20,6 18,4 14 8 28 15 WNW 1021,5 27 16 0,0
21.09.2018 18:00:00 23,2 15,0 24,0 20,5 18,4 17 9 26 14 W 1021,1 19 11 0,0
21.09.2018 17:00:00 23,5 15,3 25,8 20,4 18,4 15 8 32 17 W 1020,5 15 0 0,0
21.09.2018 16:00:00 23,6 15,1 26,9 20,3 18,4 12 7 28 15 W 1019,9 18 0 0,0
21.09.2018 15:00:00 23,9 14,3 30,0 20,2 18,4 14 7 34 18 W 1019,9 19 35 0,0
21.09.2018 14:00:00 23,9 14,6 28,7 20,2 18,4 13 7 28 15 WNW 1020,4 24 41 0,0
21.09.2018 13:00:00 24,0 15,5 26,4 20,1 18,4 10 6 22 12 NNW 1020,4 14 60 0,0
21.09.2018 12:00:00 22,7 15,3 24,4 20,1 18,4 11 6 42 23 W 1020,6 14 38 0,0
21.09.2018 11:00:00 21,6 17,0 22,6 20,2 18,4 9 5 18 10 W 1020,6 15 24 0,0
21.09.2018 10:00:00 20,2 17,4 18,8 20,2 18,4 4 2 13 7 SSE 1019,7 16 29 0,0
21.09.2018 09:00:00 18,4 16,4 17,6 20,3 18,4 5 3 16 8 SW 1019,4 16 16 0,0
21.09.2018 08:00:00 18,1 16,3 17,9 20,3 18,4 6 4 11 6 S 1018,9 15 0 0,0
21.09.2018 07:00:00 18,0 16,2 17,9 20,4 18,4 8 4 16 9 SSW 1018,4 13 0 0,0
21.09.2018 06:00:00 18,0 16,3 18,0 20,5 18,4 7 4 18 10 WSW 1018,2 12 0 0,0
21.09.2018 05:00:00 17,9 16,4 17,6 20,6 18,4 9 5 25 14 WSW 1017,9 11 0 0,0
21.09.2018 04:00:00 17,5 16,4 16,3 20,7 18,4 10 6 18 10 W 1018,0 10 0 0,0
21.09.2018 03:00:00 17,8 15,8 16,8 20,8 18,4 12 7 24 13 WSW 1017,6 16 0 0,0
21.09.2018 02:00:00 18,4 15,8 17,3 20,9 18,4 16 8 30 16 WSW 1017,7 17 0 0,0
21.09.2018 01:00:00 19,2 16,6 17,9 20,9 18,4 15 8 35 19 WSW 1017,7 16 0 0,0
21.09.2018 00:00:00 20,7 17,1 17,3 21,0 18,4 16 9 33 18 WSW 1017,2 23 0 0,0
20.09.2018 23:00:00 20,4 15,2 17,3 20,9 18,4 8 5 20 11 SSW 1016,4 20 0 0,0
20.09.2018 22:00:00 21,3 15,6 17,7 20,9 18,3 9 5 16 9 SSE 1016,0 31 0 0,0
20.09.2018 21:00:00 21,3 16,9 18,9 20,9 18,4 13 7 15 8 S 1015,8 28 0 0,0
20.09.2018 20:00:00 23,8 18,2 21,4 20,8 18,4 8 5 11 6 SSW 1015,4 27 39 0,0
20.09.2018 19:00:00 29,7 14,3 26,3 20,7 18,4 6 4 10 6 E 1014,8 34 60 0,0
20.09.2018 18:00:00 31,6 15,1 32,6 20,4 18,4 3 2 13 7 S 1014,7 33 60 0,0
20.09.2018 17:00:00 31,0 15,4 38,0 20,2 18,3 6 3 18 10 E 1015,2 34 60 0,0
20.09.2018 16:00:00 30,7 15,9 38,1 20,0 18,4 9 5 18 10 ESE 1015,7 24 60 0,0
20.09.2018 15:00:00 29,6 15,7 36,3 19,9 18,4 10 5 28 15 ENE 1016,4 43 60 0,0
20.09.2018 14:00:00 28,7 15,9 32,7 19,8 18,3 9 5 18 10 E 1017,1 60 60 0,0
20.09.2018 13:00:00 26,9 17,1 27,5 19,7 18,3 6 3 18 10 ENE 1018,0 21 60 0,0
20.09.2018 12:00:00 24,5 17,0 23,6 19,8 18,4 6 3 17 9 ENE 1019,0 25 60 0,0
20.09.2018 11:00:00 22,4 16,4 20,0 19,8 18,3 5 3 13 7 E 1019,8 19 60 0,0
20.09.2018 10:00:00 19,8 15,4 16,8 19,9 18,3 3 1 7 4 NNE 1020,4 22 60 0,0
20.09.2018 09:00:00 16,8 15,0 14,6 20,0 18,3 5 3 12 6 SSE 1020,8 25 54 0,0
20.09.2018 08:00:00 15,0 13,5 14,6 20,1 18,3 7 4 12 7 S 1021,3 18 0 0,2
20.09.2018 07:00:00 15,4 14,1 14,5 20,2 18,3 9 5 13 7 S 1021,4 17 0 0,0
20.09.2018 06:00:00 16,4 15,1 15,6 20,2 18,3 9 5 18 10 S 1021,5 18 0 0,0
20.09.2018 05:00:00 16,6 15,3 15,9 20,3 18,3 13 7 16 8 S 1021,6 17 0 0,0
20.09.2018 04:00:00 17,4 15,6 16,0 20,4 18,3 8 4 16 8 S 1021,7 21 0 0,0
20.09.2018 03:00:00 17,3 15,3 16,3 20,5 18,3 8 4 16 9 S 1022,1 18 0 0,0
20.09.2018 02:00:00 18,5 16,3 17,4 20,6 18,3 8 4 23 12 SW 1021,9 18 0 0,0
20.09.2018 01:00:00 19,4 17,5 17,5 20,6 18,3 10 5 19 10 WSW 1021,9 15 0 0,0
20.09.2018 00:00:00 19,3 17,8 17,4 20,6 18,3 5 3 13 7 W 1021,7 16 0 0,0
19.09.2018 23:00:00 20,2 17,6 18,6 20,7 18,4 10 5 12 7 S 1021,5 17 0 0,0
19.09.2018 22:00:00 21,2 18,0 18,9 20,7 18,4 8 4 11 6 SSE 1021,1 21 0 0,0
19.09.2018 21:00:00 22,3 18,5 19,1 20,6 18,3 7 4 20 11 SSE 1020,4 23 0 0,0
19.09.2018 20:00:00 23,9 18,1 20,3 20,5 18,3 5 3 10 6 SW 1019,9 25 0 0,0
19.09.2018 19:00:00 27,0 17,2 25,9 20,3 18,3 9 5 18 10 N 1019,1 35 60 0,0
19.09.2018 18:00:00 28,4 17,6 30,3 20,2 18,3 10 6 22 12 NNW 1018,6 17 60 0,0
19.09.2018 17:00:00 28,5 17,1 33,5 20,0 18,3 8 4 20 11 N 1018,7 29 60 0,0
19.09.2018 16:00:00 28,4 17,0 35,5 19,8 18,3 8 4 22 12 NNW 1018,9 18 60 0,0
19.09.2018 15:00:00 28,1 17,0 35,0 19,6 18,3 8 4 22 12 E 1019,0 24 60 0,0
19.09.2018 14:00:00 27,1 17,0 31,6 19,5 18,3 8 4 22 12 ENE 1019,7 39 60 0,0
19.09.2018 13:00:00 26,3 17,9 27,3 19,5 18,3 8 4 18 10 E 1020,0 22 60 0,0
19.09.2018 12:00:00 24,6 16,6 23,3 19,5 18,3 6 3 15 8 E 1020,8 33 60 0,0

tt = temperature
td = dewpoint
tt 5cm = temperature 5cm
tt -20cm = temperature -20cm
tt -100cm = temperature -100cm
ff = wind speed
fx = gusts
dd = wind direction
ppp = reduced air pressure
vv = visibility
sd = sunshine duration
rr = precipitation

Next stations